Home   Weather   50°51'N, 4°24'E   Past weeks
Flag for Belgium

Past Weather in 50°51'N, 4°24'E, Belgium — Yesterday and Last 2 Weeks

Now
54 °F

Passing clouds.


Feels Like: 52 °F
Forecast: 64 / 41 °F
Wind: 6 mph from Northwest

Location: Brussels National Airport

Current Time: Mar 21, 2019 at 1:31:06 pm

Latest Report: Mar 21, 2019 at 12:50 pm


Visibility: N/A

Pressure: 30.57 "Hg

Humidity: 77%

Dew Point: 46 °F

Location of 50°51'N, 4°24'ELocation

Past Weather in 50°51'N, 4°24'E — Graph

°F

50°51'N, 4°24'E Temperature Yesterday

Maximum temperature yesterday: 55 °F (at 3:20 pm)
Minimum temperature yesterday: 41 °F (at 1:50 am)
Average temperature yesterday: 48 °F

High & Low Weather Summary for the Past Weeks

 TemperatureHumidityPressure
High55 °F (Mar 20, 3:20 pm)100% (Mar 16, 2:50 am)30.57 "Hg (Mar 16, 2:50 am)
Low32 °F (Mar 19, 2:20 am)50% (Mar 12, 3:20 pm)29.12 "Hg (Mar 7, 3:50 am)
Average46 °F77%29.90 "Hg
* Reported Mar 6 12:20 pm — Mar 21 12:20 pm, 50°51'N, 4°24'E. Weather by CustomWeather, © 2019

Note: Actual official high and low records may vary slightly from our data, if they occured in-between our weather recording intervals... More about our weather records

Advertising

50°51'N, 4°24'E Weather History for the Previous 24 Hours

Scroll right to see more
 ConditionsComfort  
Time TempWeatherWind HumidityBarometerVisibility
12:20 pm
Thu, Mar 21
54 °FPassing clouds.6 mph77%30.57 "HgN/A
11:50 am54 °FPassing clouds.5 mph72%30.57 "HgN/A
11:20 am54 °FPassing clouds.2 mph77%30.57 "HgN/A
10:50 am52 °FPassing clouds.2 mph82%30.57 "HgN/A
10:20 am50 °FPassing clouds.2 mph82%30.57 "HgN/A
9:50 am50 °FPassing clouds.3 mph82%30.57 "Hg6 mi
9:20 am48 °FPassing clouds.3 mph87%30.57 "Hg6 mi
8:50 am46 °FClear.2 mph93%30.57 "Hg6 mi
8:20 am45 °FClear.5 mph93%30.57 "Hg5 mi
7:50 am43 °FClear.3 mph93%30.54 "Hg5 mi
7:20 am41 °FClear.5 mph93%30.54 "Hg5 mi
6:50 am39 °FClear.5 mph100%30.54 "Hg4 mi
6:20 am39 °FClear.3 mph100%30.54 "Hg10 mi
5:50 am41 °FClear.3 mph93%30.54 "Hg10 mi
5:20 am41 °FClear.3 mph93%30.54 "Hg10 mi
4:50 am41 °FClear.3 mph93%30.54 "Hg10 mi
4:20 am41 °FClear.5 mph93%30.54 "Hg10 mi
3:50 am41 °FPassing clouds.3 mph93%30.54 "HgN/A
3:20 am43 °FClear.7 mph93%30.54 "Hg10 mi
1:50 am45 °FClear.6 mph87%30.54 "Hg10 mi
1:20 am43 °FClear.6 mph93%30.54 "Hg10 mi
12:50 am45 °FClear.6 mph87%30.54 "Hg10 mi
12:20 am45 °FClear.6 mph87%30.54 "Hg10 mi
11:50 pm
Wed, Mar 20
45 °FClear.6 mph87%30.54 "Hg10 mi
11:20 pm45 °FClear.5 mph87%30.54 "Hg10 mi
10:50 pm45 °FClear.3 mph87%30.54 "Hg10 mi
10:20 pm46 °FPassing clouds.3 mph87%30.54 "HgN/A
9:50 pm45 °FPassing clouds.3 mph93%30.54 "HgN/A
9:20 pm48 °FPassing clouds.3 mph76%30.54 "HgN/A
8:50 pm48 °FPassing clouds.3 mph87%30.54 "HgN/A
8:20 pm50 °FPassing clouds.3 mph82%30.54 "HgN/A
7:50 pm50 °FPassing clouds.5 mph82%30.54 "HgN/A
7:20 pm52 °FPassing clouds.5 mph72%30.54 "HgN/A
6:50 pm54 °FPartly sunny.6 mph72%30.54 "HgN/A
6:20 pm54 °FPartly sunny.5 mph72%30.54 "HgN/A
5:50 pm54 °FPartly sunny.6 mph72%30.51 "HgN/A
5:20 pm55 °FPassing clouds.5 mph63%30.51 "HgN/A
4:50 pm55 °FPassing clouds.7 mph63%30.51 "HgN/A
4:20 pm55 °FScattered clouds.6 mph63%30.51 "HgN/A
3:50 pm55 °FScattered clouds.6 mph63%30.54 "HgN/A
3:20 pm55 °FScattered clouds.8 mph67%30.54 "HgN/A
2:20 pm54 °FPassing clouds.10 mph67%30.54 "HgN/A
1:50 pm54 °FScattered clouds.9 mph67%30.54 "HgN/A
1:20 pm54 °FPassing clouds.9 mph67%30.54 "HgN/A
Weather by CustomWeather, © 2019

See weather overview